EW9479 Weather Reports


Display with metric or nautical units.
time (UTC)temp
F
wind
direction
speed
MPH
gust
MPH
rain 1hr
in
rain 24hr
in
rain mn
in
humidity
%
barometer
mb
20260903223045 99 0 1.0 3.0 0.00 0.00 0.00 47 1014.5
20260903221545 99 191 0.0 3.0 0.00 0.00 0.00 47 1014.4
20260903220045 98 0 0.0 4.0 0.00 0.00 0.00 48 1014.4
20260903214605 98 70 0.0 2.0 0.00 0.00 0.00 48 1014.4
20260903213048 98 89 1.0 5.0 0.00 0.00 0.00 47 1014.5
20260903211546 100 326 3.0 7.0 0.00 0.00 0.00 44 1014.6
20260903210046 99 197 2.0 7.0 0.00 0.00 0.00 45 1014.8
20260903204547 100 262 4.0 9.0 0.00 0.00 0.00 45 1015.0
20260903203047 100 257 3.0 9.0 0.00 0.00 0.00 44 1015.0
20260903201552 98 249 3.0 5.0 0.00 0.00 0.00 45 1015.4
20260903200051 99 203 5.0 9.0 0.00 0.00 0.00 47 1015.7
20260903194552 98 196 2.0 6.0 0.00 0.00 0.00 48 1015.8
20260903193046 96 0 0.0 1.0 0.00 0.00 0.00 53 1016.3
20260903191545 96 69 0.0 2.0 0.00 0.00 0.00 54 1016.4
20260903190052 96 25 1.0 4.0 0.00 0.00 0.00 52 1016.5
20260903184546 95 314 1.0 5.0 0.00 0.00 0.00 53 1016.6
20260903183046 96 300 1.0 3.0 0.00 0.00 0.00 53 1017.0
20260903181544 95 231 1.0 3.0 0.00 0.00 0.00 55 1017.0
20260903180051 96 220 1.0 3.0 0.00 0.00 0.00 53 1017.1
20260903174548 95 34 1.0 5.0 0.00 0.00 0.00 56 1017.2
20260903173046 95 208 3.0 6.0 0.00 0.00 0.00 56 1017.5
20260903171543 94 0 0.0 4.0 0.00 0.00 0.00 57 1017.7
20260903170053 94 199 2.0 4.0 0.00 0.00 0.00 55 1017.8
20260903164550 94 186 3.0 10.0 0.00 0.00 0.00 57 1017.9
20260903163047 95 17 2.0 6.0 0.00 0.00 0.00 58 1018.1
20260903161546 95 24 1.0 4.0 0.00 0.00 0.00 59 1018.2
20260903160052 94 23 2.0 5.0 0.00 0.00 0.00 60 1018.2
20260903154550 93 24 2.0 6.0 0.00 0.00 0.00 61 1018.3
20260903153101 93 53 1.0 4.0 0.00 0.00 0.00 61 1018.3
20260903151544 92 321 1.0 4.0 0.00 0.00 0.00 63 1018.3
20260903150104 91 309 2.0 5.0 0.00 0.00 0.00 63 1018.3
20260903144546 91 291 2.0 4.0 0.00 0.00 0.00 62 1018.4
20260903143056 91 0 0.0 2.0 0.00 0.00 0.00 66 1018.4
20260903141555 91 110 0.0 1.0 0.00 0.00 0.00 65 1018.4
20260903140052 89 128 0.0 1.0 0.00 0.00 0.00 68 1018.3
20260903134549 88 0 0.0 1.0 0.00 0.00 0.00 71 1018.5
20260903133045 86 0 0.0 0.0 0.00 0.00 0.00 76 1018.5
20260903131553 81 0 0.0 1.0 0.00 0.00 0.00 82 1018.5
20260903130044 77 0 0.0 0.0 0.00 0.00 0.00 87 1018.5
20260903124549 75 0 0.0 1.0 0.00 0.00 0.00 89 1018.6
20260903123043 74 0 0.0 1.0 0.00 0.00 0.00 90 1018.6
20260903121543 73 0 0.0 1.0 0.00 0.00 0.00 91 1018.4
20260903120051 72 0 0.0 0.0 0.00 0.00 0.00 91 1018.1
20260903114545 72 0 0.0 0.0 0.00 0.00 0.00 91 1018.1
20260903113045 72 0 0.0 0.0 0.00 0.00 0.00 91 1017.8
20260903111551 72 0 0.0 0.0 0.00 0.00 0.00 91 1017.7
20260903110045 72 0 0.0 0.0 0.00 0.00 0.00 90 1017.4
20260903104607 73 0 0.0 0.0 0.00 0.00 0.00 90 1017.4
20260903103057 72 0 0.0 0.0 0.00 0.00 0.00 90 1017.3
20260903101553 73 0 0.0 0.0 0.00 0.00 0.00 90 1017.4
20260903100045 73 0 0.0 0.0 0.00 0.00 0.00 90 1017.4
20260903094547 73 0 0.0 0.0 0.00 0.00 0.00 90 1017.3
20260903093051 73 0 0.0 0.0 0.00 0.00 0.00 89 1017.4
20260903091552 73 0 0.0 0.0 0.00 0.00 0.00 89 1017.4
20260903090046 73 0 0.0 0.0 0.00 0.00 0.00 89 1017.6
20260903084547 73 0 0.0 0.0 0.00 0.00 0.00 88 1017.5
20260903083047 74 0 0.0 0.0 0.00 0.00 0.00 88 1017.4
20260903081603 74 0 0.0 0.0 0.00 0.00 0.00 88 1017.2
20260903080044 74 0 0.0 0.0 0.00 0.00 0.00 87 1017.3
20260903074554 75 0 0.0 0.0 0.00 0.00 0.00 86 1017.3
20260903073047 75 0 0.0 0.0 0.00 0.00 0.00 86 1017.3
20260903071551 75 0 0.0 0.0 0.00 0.00 0.00 86 1017.3
20260903070045 75 0 0.0 0.0 0.00 0.00 0.00 85 1017.4
20260903064551 75 0 0.0 0.0 0.00 0.00 0.00 85 1017.4
20260903063049 76 0 0.0 0.0 0.00 0.00 0.00 85 1017.5
20260903061544 75 0 0.0 0.0 0.00 0.00 0.00 85 1017.5
20260903060049 76 0 0.0 0.0 0.00 0.00 0.00 85 1017.7
20260903054548 76 0 0.0 0.0 0.00 0.00 0.00 85 1017.5
20260903053045 76 0 0.0 0.0 0.00 0.00 0.00 84 1017.5
20260903051548 76 0 0.0 0.0 0.00 0.00 0.00 84 1017.6
20260903050048 76 0 0.0 0.0 0.00 0.00 0.00 84 1017.4
20260903044547 76 0 0.0 0.0 0.00 0.00 0.00 84 1017.4
20260903043043 76 0 0.0 0.0 0.00 0.00 0.00 83 1017.5
20260903041549 76 0 0.0 0.0 0.00 0.00 0.00 82 1017.5
20260903040046 77 0 0.0 0.0 0.00 0.00 0.00 81 1017.3
20260903034552 78 0 0.0 0.0 0.00 0.00 0.00 79 1017.4
20260903033105 79 0 0.0 0.0 0.00 0.00 0.00 79 1017.6
20260903031549 79 0 0.0 0.0 0.00 0.00 0.00 78 1017.5
20260903030049 80 0 0.0 0.0 0.00 0.00 0.00 76 1017.4
20260903024603 81 0 0.0 0.0 0.00 0.00 0.00 76 1017.4
20260903023051 81 0 0.0 0.0 0.00 0.00 0.00 74 1017.4
20260903021548 82 0 0.0 0.0 0.00 0.00 0.00 74 1017.3
20260903020103 83 0 0.0 0.0 0.00 0.00 0.00 73 1017.2
20260903014544 83 0 0.0 0.0 0.00 0.00 0.00 71 1017.0
20260903013050 84 0 0.0 1.0 0.00 0.00 0.00 70 1016.8
20260903011546 85 117 0.0 1.0 0.00 0.00 0.00 68 1016.6
20260903010044 86 0 0.0 1.0 0.00 0.00 0.00 67 1016.5
20260903004551 87 0 0.0 0.0 0.00 0.00 0.00 65 1016.4
20260903003046 88 0 0.0 0.0 0.00 0.00 0.00 63 1016.5
20260903001602 90 0 0.0 0.0 0.00 0.00 0.00 59 1016.3
20260903000059 93 0 0.0 1.0 0.00 0.00 0.00 56 1016.4
20260902234550 95 0 0.0 1.0 0.00 0.00 0.00 52 1016.4
20260902233049 95 91 0.0 2.0 0.00 0.00 0.00 51 1016.5
20260902231552 96 101 0.0 4.0 0.00 0.00 0.00 48 1016.4
20260902230043 96 101 0.0 3.0 0.00 0.00 0.00 48 1016.6
20260902224544 97 77 0.0 2.0 0.00 0.00 0.00 46 1016.5